Regional Weather Roundup
Issued by NWS

Home | Current Version | Previous Version | Graphics & Text | Print | Product List | Glossary On
Versions: 1 2 3 4 5 6 7 8 9 10 11 12 13 14 15 16 17 18 19 20 21 22 23 24 25 26 27 28 29 30 31 32 33 34 35 36 37 38 39 40 41 42 43 44 45 46 47 48 49 50
000
ASUS43 KBIS 250601
RWRND

NORTH DAKOTA REGIONAL WEATHER ROUNDUP
NATIONAL WEATHER SERVICE BISMARCK ND
1200 AM CST SUN JAN 25 2015

NOTE: "FAIR" INDICATES FEW OR NO CLOUDS BELOW 12,000 FEET WITH NO
SIGNIFICANT WEATHER AND/OR OBSTRUCTIONS TO VISIBILITY.


NDZ001>003-009>011-017-250700-
NORTHWEST NORTH DAKOTA

CITY           SKY/WX    TMP DP  RH WIND       PRES   REMARKS
WILLISTON      CLOUDY    36  30  79 W14       29.91R
6HR MIN TEMP:  35; 6HR MAX TEMP:  39;

MINOT          CLOUDY    30  29  96 NW3       29.83R FOG
MINOT AFB      MIX PCPN  27  27 100 N3        29.84R
$$

NDZ018>021-031>035-040>046-250700-
SOUTHWEST NORTH DAKOTA

CITY           SKY/WX    TMP DP  RH WIND       PRES   REMARKS
BISMARCK       CLOUDY    37  32  82 NW15      29.84R
6HR MIN TEMP:  33; 6HR MAX TEMP:  37; 6HR PCP:  0.05;

DICKINSON      PTCLDY    35  29  78 W16       29.88R
GARRISON         N/A     35  33  92 NW16      29.83R
6HR MIN TEMP:  33; 6HR MAX TEMP:  36; 6HR PCP:  0.05;

HETTINGER ARPT CLOUDY    35  30  82 NW14      29.93R
$$

NDZ004>008-012>016-024-026-027-054-250700-
NORTHEAST NORTH DAKOTA

CITY           SKY/WX    TMP DP  RH WIND       PRES   REMARKS
GRAND FORKS    CLOUDY    21  14  74 N12       29.89R WCI   9
GRND FRKS AFB  CLOUDY    19  14  80 N13       29.89R WCI   7
DEVILS LAKE    CLOUDY    18  14  86 NE6       29.85R WCI   9
$$

NDZ022-023-025-028>030-036>039-047>053-250700-
SOUTHEAST NORTH DAKOTA

CITY           SKY/WX    TMP DP  RH WIND       PRES   REMARKS
FARGO          CLOUDY    29  23  78 N18       29.82R WCI  16
6HR MIN TEMP:  29; 6HR MAX TEMP:  34; 6HR PCP:  0.01;

JAMESTOWN      LGT SNOW  25  23  92 N8        29.83R FOG     WCI  16
$$



USA.gov is the U.S. government's official web portal to all federal, state and local government web resources and services.